www.pogodaiklimat.ru

АРХИВ ПОГОДЫ в Глазго

Время (UTC), дата Ветер
(напр.,м/с)
 
Видим.   Явления Облачность Т
(С)
Тd
(С)
f
(%)
Тe
(С)
Тes
(С)
Комфортность

P
(гПа)

Po
(гПа)
Тmin
(С)
Tmax
(С)
R
(мм)
SD
(см)
03:53 25.03 В  13 км    10/10 150 м  0.0  -2.2  85  -7  -7    1028.1  943.1         
04:53 25.03 В  11 км    10/10 150 м  0.0  -2.2  85  -7  -7    1028.2  943.1  0.0  +0.6     
05:19 25.03 В  10 км  дымка  10/10 120 м  0.0  -2.2  85  -7  -7      942.8         
05:53 25.03 В  8 км  дымка  10/10 120 м  0.0  -2.2  85  -7  -7    1028.2  943.1         
06:53 25.03 В  5 км  дымка  10/10 120 м  0.0  -2.2  85  -6  -6    1028.2  943.1         
07:53 25.03 В  6 км  дымка  10/10 120 м  -0.6  -2.2  89  -7  -7    1028.2  943.1         
08:18 25.03 В  6 км  слабый замерзающий дождь, дымка  10/10 120 м  0.0  -2.2  85  -6  -6      943.1         
08:48 25.03 В  6 км  неопределенные осадки, дымка  10/10 150 м  -1.0  -2.0  93  -7  -7      942.8         
08:53 25.03 В  6 км  неопределенные осадки, дымка  10/10 150 м  -0.6  -2.2  89  -8  -8    1027.8  942.8         
09:53 25.03 В  8 км  дымка  10/10 180 м  -0.6  -2.8  85  -7  -7    1027.5  942.4         
10:53 25.03 ЮВ  8 км  дымка  10/10 150 м  -0.6  -2.8  85  -7  -7    1027.2  942.1  -0.6  0.0  0.3   
11:53 25.03 ЮВ  8 км  дымка  10/10 210 м  -0.6  -2.8  85  -7  -7    1027.4  942.1         
12:53 25.03 ЮВ  5 км  дымка  10/10 150 м  -0.6  -2.8  85  -7  -7    1027.4  942.1         
13:27 25.03 ЮВ  4 км  дымка  10/10 150 м  -0.6  -2.2  89  -6  -6      942.1         
13:35 25.03 ЮВ  5 км  дымка  10/10 120 м  -0.6  -2.2  89  -6  -6      942.1         
13:48 25.03 ЮВ  4 км  дымка  10/10 120 м  -1.0  -2.0  93  -7  -7      942.1         
13:53 25.03 ЮВ  4 км  дымка  10/10 120 м  -0.6  -2.2  89  -6  -6    1027.4  942.1         
14:53 25.03 ЮВ  3 км  дымка  10/10 90 м  0.0  -2.2  85  -5  -5    1027.5  942.4         
15:53 25.03 ЮВ  3 км  дымка  10/10 120 м  0.0  -1.7  88  -6  -6    1027.5  942.4         
16:34 25.03 ЮВ  2 км  дымка  10/10 90 м  +0.6  -1.1  88  -4  -4      942.4         
16:53 25.03 ЮВ  3 км  дымка  10/10 90 м  +0.6  -1.1  88  -5  -5    1027.1  942.1  -0.6  +0.6     
17:35 25.03 ЮВ  5 км  дымка  10/10 90 м  +1.1  -1.1  85  -4  -4      941.5         
17:53 25.03 ЮВ  6 км  дымка  8/8 120 м  +2.2  0.0  85  -2  -1    1026.3  941.5         
18:16 25.03 ЮВ  6 км  дымка  10/10 150 м  +2.2  0.0  85  -2  -2      941.5         
18:53 25.03 ЮВ  6 км  дымка  10/10 150 м  +2.2  0.0  85  -2  -2    1026.1  941.2         
19:36 25.03 ЮВ  6 км  дымка  10/10 120 м  +2.2  0.0  85  -0  -0      940.6         
19:49 25.03 В  6 км  мгла  10/10 150 м  +3.0  0.0  81  -1  -1      940.6         
19:53 25.03 ЮВ  5 км  дымка  10/10 150 м  +2.8  +0.6  85  -1  -1    1025.2  940.6         
20:48 25.03 В  5 км  мгла  10/10 120 м  +3.0  +1.0  87  -2  -2      940.0         
20:53 25.03 В  6 км  мгла  10/10 120 м  +3.3  +0.6  82  -1  -1    1024.6  940.0         
21:08 25.03 В  6 км  мгла  10/10 180 м  +3.3  +0.6  82  -1  -1      940.0         
21:53 25.03 В  6 км  дымка  10/10 180 м  +3.9  +1.7  86  -1  -1    1024.3  939.6         
22:27 25.03 ЮВ  8 км  дымка  10/10 240 м  +3.9  +1.7  86  -0  -0      939.3         
22:53 25.03 В  6 км  дымка  10/10 360 м  +3.9  +1.7  86  -1  -1    1023.2  938.7  +0.6  +4.4     
23:20 25.03 ЮВ  6 км  мгла  5/5 420 м  +4.4  +1.7  83  0  +1      938.7         
23:53 25.03 В  6 км  мгла  ясно  +3.9  +1.1  82  -1  0    1022.4  938.1         
00:26 26.03 В  4 км  дымка  ясно  +2.8  +0.6  85  -3  -3      937.5         
00:33 26.03 В  5 км  дымка  ясно  +2.8  +0.6  85  -3  -3      937.5         
00:53 26.03 В  6 км  дымка  ясно  +2.8  +0.6  85  -3  -3    1021.7  937.2         
01:53 26.03 В  8 км  дымка  ясно  +2.2  0.0  85  -4  -4    1022.0  937.5         
02:53 26.03 В  6 км  дымка  ясно  +1.7  -0.6  85  -5  -5    1021.2  936.8         
03:53 26.03 В  6 км  дымка  ясно  +1.7  -0.6  85  -5  -5    1020.6  936.2         
04:53 26.03 ЮВ  10 км  дымка  ясно  +1.7  -0.6  85  -5  -5    1020.0  935.9  +1.1  +4.4     
05:53 26.03 ЮВ  14 км    ясно  +1.7  -0.6  85  -5  -5    1018.8  935.0         
06:53 26.03 ЮВ  16 км    ясно  +2.2  0.0  85  -4  -4    1018.2  934.3         
07:53 26.03 В  16 км    ясно  +2.2  0.0  85  -3  -3    1017.4  933.7         
08:53 26.03 В  16 км    ясно  +0.6  -1.1  88  -6  -6    1017.0  933.1         
09:53 26.03 В  16 км    ясно  +0.6  -1.1  88  -6  -6    1016.6  932.8         

 

Местоположение метеостанции Glasgow International Airport: широта 48.2139 долгота -106.6214 высота над уровнем моря 699 м.

В архиве по умолчанию представлена погода в Глазго за последние 1-2 суток. Обновление информации о фактической погоде в базе происходит ежечасно! Архивные данные за месяц целиком и за предыдущие месяцы Вы можете получить, выбрав интересующий диапазон дат из раскрывающегося списка и нажав кнопку "Ввод!".

Внимание! Архив погоды МЕТАР в базе сайта в настоящее время начинается c 1 января 2011 г. Нет смысла пытаться выбрать более раннюю дату.

Внимание! Время в таблицах - всемирное. Для получения местного времени необходимо прибавить поправку, которая в Глазго равна -7 ч.

Ветер - указаны скорость ветра в м/с и направление, откуда дует ветер: С - северный, СВ - северо-восточный, В - восточный, ЮВ - юго-восточный, Ю - южный, ЮЗ - юго-западный, З - западный, СЗ - северо-западный.
Видимость - горизонтальная дальность видимости в метрах или километрах. При видимости от 1 до 10 км при отсутствии осадков обычно наблюдается дымка, при ухудшении видимости до 1 км и менее - туман. В сухую погоду видимость может ухудшаться дымом, пылью или мглою.
Атмосферные явления - указаны явления, наблюдавшиеся в указанный момент времени.
Облачность - указаны через наклонную черту верхняя и нижняя облачность в баллах и высота нижней границы облаков в метрах. Внимание: облачность, как и прочие метеорологические величины в США измеряются автоматическими метеостанциями. Указанные значения в баллах носят условный характер и показывают процент времени, в течение которого, в среднем, лазерный луч высотомера отражался от облаков обратно.
T - Температура воздуха - температура, измеренная на высоте 2 м над землей.
Td - Температура точки росы - температура, при понижении до которой содержащийся в воздухе водяной пар достигнет насыщения.
f - Относительная влажность воздуха - влажноcть воздуха, измеренная на высоте 2 м над землей.
Te - Эффективная температура - температура, которую ощущает одетый по сезону человек в тени. Характеристика душности погоды. При расчете учитывается влияние влажности воздуха и скорости ветра на теплоощущения человека.
Tes - Эффективная температура на солнце - температура, которую ощущает человек, с поправкой на солнечный нагрев. Характеристика знойности погоды. Зависит от высоты солнца над горизонтом, облачности и скорости ветра. Ночью, в пасмурную погоду, а также при ветре 12 м/с и более поправка равна нулю.
P - Атмосферное давление - приведенное к уровню моря атмосферное давление.
Po - Атмосферное давление - измеренное на уровне метеостанции атмосферное давление.
Tmin - Минимальная температура - минимум температуры воздуха на высоте 2 м над землей.
Tmax - Максимальная температура - максимум температуры воздуха на высоте 2 м над землей.
R - Количество осадков - Количество выпавших осадков за 3 или 6 часов, мм.
SD - Снежный покров - Высота снежного покрова, см.